Location: Oshawa
(43.9000°N, 78.8670°W)
Time: 17:46:47
(UTC-04:00)

CZ-4C R/B - Visible Passes

Search period start: 28 July 2015 00:00
Search period end: 07 August 2015 00:00
Orbit: 425 x 533 km, 97.5° (Epoch: 28 July)

Date Brightness Start Highest point End Pass type
(mag) Time Alt. Az. Time Alt. Az. Time Alt. Az.
28 Jul 4.8 23:07:50 19° ENE 23:07:50 19° ENE 23:09:51 10° NNE visible
29 Jul 5.4 00:42:04 16° WNW 00:42:04 16° WNW 00:43:14 10° NW visible
30 Jul 4.7 00:15:47 29° NW 00:15:47 29° NW 00:17:38 10° NNW visible
30 Jul 4.2 23:49:29 37° N 23:49:29 37° N 23:51:36 10° N visible
31 Jul 4.5 23:23:10 25° NE 23:23:10 25° NE 23:25:13 10° N visible
01 Aug 5.9 00:57:25 11° WNW 00:57:25 11° WNW 00:57:34 10° WNW visible
01 Aug 5.2 22:56:52 14° ENE 22:56:52 14° ENE 22:58:17 10° NNE visible
02 Aug 5.3 00:31:06 19° NW 00:31:06 19° NW 00:32:24 10° NW visible
03 Aug 4.8 00:04:47 30° NNW 00:04:47 30° NNW 00:06:34 10° NNW visible
03 Aug 4.5 23:38:27 29° NNE 23:38:27 29° NNE 23:40:21 10° N visible
04 Aug 4.9 23:12:07 19° NE 23:12:07 19° NE 23:13:46 10° NNE visible
05 Aug 5.8 00:46:22 13° NW 00:46:22 13° NW 00:46:56 10° NW visible
05 Aug 5.5 22:45:47 10° NE 22:45:47 10° NE 22:46:08 10° NE visible
06 Aug 5.3 00:20:01 21° NW 00:20:01 21° NW 00:21:22 10° NNW visible
06 Aug 4.9 23:53:40 27° N 23:53:40 27° N 23:55:20 10° N visible
